Location: Amsterdam
(30.7274°N, 84.4357°W)
Time: 22:13:43
(UTC+00:00)

SEEDS - Visible Passes

Search period start: 19 September 2024 00:00
Search period end: 29 September 2024 00:00
Orbit: 541 x 549 km, 97.7° (Epoch: 18 September)

Date Brightness Start Highest point End Pass type
(mag) Time Alt. Az. Time Alt. Az. Time Alt. Az.
19 Sep ? 08:38:53 10° ENE 08:40:23 14° E 08:40:23 14° E visible
19 Sep ? 10:12:27 10° NNW 10:15:47 27° WNW 10:15:59 27° WNW visible
20 Sep ? 08:33:36 10° ENE 08:34:25 12° E 08:34:25 12° E visible
20 Sep ? 10:06:30 10° N 10:10:00 32° WNW 10:10:02 32° WNW visible
21 Sep ? 10:00:32 10° N 10:04:02 38° WNW 10:04:02 38° WNW visible
22 Sep ? 09:54:34 10° N 09:58:00 44° WNW 09:58:00 44° WNW visible
23 Sep ? 09:48:36 10° N 09:51:56 51° NW 09:51:56 51° NW visible
24 Sep ? 09:42:37 10° N 09:45:50 55° NNW 09:45:50 55° NNW visible
25 Sep ? 09:36:38 10° N 09:39:42 53° N 09:39:42 53° N visible
26 Sep ? 09:30:38 10° NNE 09:33:32 48° NNE 09:33:32 48° NNE visible
27 Sep ? 09:24:37 10° NNE 09:27:19 40° NE 09:27:19 40° NE visible
28 Sep ? 09:18:36 10° NNE 09:21:04 34° NE 09:21:04 34° NE visible
